Location: Peebles
(55.6412°N, 3.1714°W)
Time: 23:09:02
(UTC+00:00)

BREEZE-M R/B - Visible Passes

Search period start: 27 January 2022 00:00
Search period end: 06 February 2022 00:00
Orbit: 629 x 26537 km, 48.9° (Epoch: 27 January)

Date Brightness Start Highest point End Pass type
(mag) Time Alt. Az. Time Alt. Az. Time Alt. Az.
27 Jan 5.7 06:07:19 10° SW 06:38:02 50° SSE 06:44:17 10° E visible
28 Jan 6.1 05:22:54 10° SW 05:59:41 47° SSE 06:06:41 10° E visible
29 Jan 6.4 04:38:11 10° SW 05:21:11 44° SSE 05:29:02 10° E visible
30 Jan 6.7 03:53:47 10° SSW 04:42:31 41° SSE 04:51:21 10° E visible
31 Jan 7.0 03:10:31 10° SSW 04:03:38 37° SSE 04:13:34 10° E visible
01 Feb 7.3 02:29:07 10° S 03:24:35 33° SE 03:35:40 10° E visible
02 Feb 7.5 01:50:14 10° S 02:45:20 29° SE 02:57:36 10° E visible
03 Feb 7.6 01:14:14 10° S 02:05:56 25° SE 02:19:15 10° E visible
04 Feb 7.7 00:41:22 10° SSE 01:26:28 21° SE 01:40:26 10° E visible
05 Feb 7.8 00:11:54 10° SSE 00:47:02 17° SE 01:00:48 10° E visible
